User: anonymous   Login
Location: Bittkow
(50.3000°N, 19.0000°E)
Time: 10:17:19
(UTC+00:00)
Language:

Cosmos 858 Rocket - Orbit

View from above orbital plane
View from above orbital plane
View from above satellite
View from above satellite

Ground track
Ground track

The orbit data is extracted from the following two-line orbital elements,

1 09444U 76098B   21166.91918520  .00000051  00000-0  25581-4 0  9993
2 09444  74.0498 131.7077 0014524 272.5772  87.3719 14.37954419778452
Epoch (UTC): 15 June 2021 22:03:37
Eccentricity: 0.0014524
inclination: 74.0498°
perigee height: 755 km
apogee height: 775 km
right ascension of ascending node: 131.7077°
argument of perigee: 272.5772°
revolutions per day: 14.37954419
mean anomaly at epoch: 87.3719°
orbit number at epoch: 77845

The dashed part of the orbit path shows where the satellite is in the earth's shadow,  

DLR